星链-31391 (STARLINK-31391 )

导读 | 星芒AI

STARLINK-31391 是 SpaceX 星链(Starlink)卫星互联网项目中的第 31391 颗卫星。该卫星属于星链计划的第二批部署任务,旨在为全球提供高速、低延迟的宽带互联网服务。它运行在近地轨道,配备先进通信设备,支持全球范围内的网络连接,尤其服务于偏远和网络基础设施薄弱的地区。作为星链星座的一部分,STARLINK-31391 有助于提升全球互联网覆盖率和稳定性。

基本信息
目录编号:
59406
目录名称:
STARLINK-31391
国际标识:
2024-064J
轨道中心:
EARTH
卫星名称:
星链-31391
卫星全名:
星链-31391 (STARLINK-31391 )
卫星状态:
在轨 (已飞行575 天)
发射日期:
2024-04-05 UTC
国别 :
美国 (US)
星等 :
--
轨道信息
数据来源 国际轨道数据
星历时间: 2025-11-01T01:06:47+0800
10小时前
查看轨道信息
半长轴: 6861.202km
偏心率: 0.0001002
轨道倾角: 43.005°
近地点辐角 285.218°
升交点赤经 64.295°
平近点角 74.856°
近地点: 482.379km
远地点: 483.755km
周期: 94.267分钟
每日圈数: 15.275748
详细信息
固有亮度:
5
最大亮度:
0.3
卫星平台:
Starlink v2.0 mini
覆盖范围:
全球
运营商:
太空探索技术公司
运营商所在国:
美国
制造商(研发单位):
太空探索技术公司
制造商所在国:
美国
使用方式:
暂无
卫星简介
星链(Starlink)计划是由太空探索技术公司(SpaceX)提出的一个巨型低轨卫星互联网星座项目,计划在2019年至2024年间在太空搭建由约1.2万颗卫星组成的“星链”网络,其中1584颗将部署在地球上空550千米处的近地轨道,并从2020年开始工作。该卫星仍在工作。
2D轨道图
3D轨道图
轨道高度分析图
轨道倾角分析图
轨道综合分析图
查看轨道综合分析图